Showing default

ESSA 5, 2757

Orbit data source: Space-Track

ESSA 5, 2757 is a payload satellite owned by ESSA (US) in SSO that was launched on Thu, 20 Apr 1967 UTC via a THOR DELTA E launch vehicle from the Air Force Western Test Range (AFWTR). Payload-class satellites include a variety of spacecraft equipped with specific instruments for various scientific and technological missions. These include communications satellites like Starlink; space stations such as the ISS; scientific satellites like the Hubble; Earth observation satellites from companies like Planet Labs, Umbra, and HawkEye 360; GPS; miniature CubeSats for education and research; and military/defense satellites.

Loading next visibility...
Identifier
2757, 1967-036A
Orbit
SSO
Country
Flag of USUS
Related business
Manufacturer
RCA/East Windsor
Mission
Non-operational spacecraft
Bus & Motor
TIROS I, Unknown motor
Mass
147 kg wet, 147 kg dry
Launch date (UTC)
1967-04-20 (59 years ago)
Launch vehicle
THOR DELTA E
Launch site
Air Force Western Test Range (AFWTR)
Object type
Payload
Rocket body
Debris
Shape & HBR
Unknown
Radar Cross Section
Medium (>0.1 m² and <1 m²)

Expand to show TLE details & history
Last TLE update: 10 hours ago

TLE from 10 hours ago
0 ESSA 5
1 02757U 67036A   26166.12627362 -.00000052  00000-0 -16462-4 0  9995
2 02757 101.9907 348.5587 0042459 256.0379 214.5406 12.68542946738711
Epoch: 2026-06-15T03:01Z
TLE epoch observation values (Epoch: 2026-06-15T03:01:50.040Z)
Latitude
66.63175°
Longitude
-111.03407°
Altitude
1,426.437 km
Speed
7.141 km/s
True Right ascension
13h 11m 21s
True Declination
66° 31' 01"
Sunlit
Object was in daylight at epoch
Visualization orbit readout
Latitude
Unknown
Longitude
Unknown
Altitude
Unknown
Speed
Unknown
Apparent Right ascension
Unknown
Apparent Declination
Unknown
Sunlit
N/A
Visualization observer readout
Local Sidereal Time
23:31:37
Azimuth
Unknown
Elevation
Unknown
Doppler factor
Unknown
Orbital elements
Apogee altitude
1,418.381 km
Perigee altitude
1,352.455 km
Semi-major axis
7,763.555 km
Eccentricity
0.00425
Inclination
101.9907°
RAAN
348.5587°
Arg. of periapsis
256.0379°
True anomaly
214.26594°
Mean anomaly
214.5406°
Eccentric anomaly
214.40315°
Mean motion
3.17287 °/min
Orbital period
113.46 mins
BSTAR
-0.000016462
Loading maneuver chart data...
Computing Atmospheric mass density...
Loading historical data...
Loading historical data...
Loading historical data...
Loading historical data...
Loading historical data...
Loading historical data...
Loading historical data...
Other satellites on launch #36 in the year 1967 (1967-04-20 UTC)

Documentation

Showing up to 5 results
|